Zurück zum Katalog

STARLINK-31628

AktivKommunikationVLEO
NORAD 59342·PAYLOAD·🇺🇸 United States

Gestartet Mar 25, 2024 von Cape Canaveral Space Force Station

Loading…

Nächste Überflüge (nächste 24 Stunden)

TLE

AktuellSource: CelesTrak SupGP

Epoche: Sep 14, 2026, 21:19 UTC

1 59342C 24057Y   26257.88868056  .00011929  00000+0  43202-3 0  2574
2 59342  43.0027 198.7164 0001343 262.7528  74.2677 15.27576284    11

Verfolge STARLINK-31628 in Echtzeit mit AllMySat

Download on the App Store